Location: Malanoce
(44.2500°N, 7.4667°E)
Time: 23:20:52
(UTC+00:00)

Cosmos 1464 Rocket - Pass Details

Date: 17 November 2025
Orbit: 950 x 1001 km, 82.9° (Epoch: 09 December)

Event Time Altitude Azimuth Distance (km) Brightness Sun altitude
Rises 17:14:30 0° 170° (S) 3,693 7.1 -13.1°
Reaches altitude 10° 17:17:05 10° 165° (SSE) 2,742 6.3 -13.6°
Maximum altitude 17:23:08 52° 91° (E) 1,210 4.1 -14.6°
Drops below altitude 10° 17:29:08 10° 17° (NNE) 2,726 6.1 -15.7°
Sets 17:31:42 0° 13° (NNE) 3,669 6.8 -16.1°
